Gulkana, AK

2:06 PM AKDT on April 29, 2017 (GMT -0800)
Gulkana

Weather History for PAGK - May, 2013

Change the Weather History Date:

Wednesday, May 8, 2013

  Actual Average Record
Temperature  
Mean Temperature 38 °F -  
Max Temperature 50 °F 51 °F 71 °F (2005)
Min Temperature 26 °F 30 °F 8 °F (1964)
Degree Days  
Heating Degree Days 27    
Moisture  
Dew Point 20 °F    
Average Humidity 47    
Maximum Humidity 78    
Minimum Humidity 18    
Precipitation  
Precipitation 0.00 in - - ()
Sea Level Pressure  
Sea Level Pressure 30.27 in    
Wind  
Wind Speed 7 mph (NNW)    
Max Wind Speed 9 mph    
Max Gust Speed -    
Visibility 10 miles    
Events      
Averages and records for this station are not official NWS values.
T = Trace of Precipitation, MM = Missing Value Source: NWS Daily Summary

Daily Weather History Graph

Daily Weather History Graph

Search for Another Location

Airport or City:

Trip Planner

Search our weather history database for the weather conditions in past years. The results will help you decide how hot, cold, wet, or windy it might be!

Date:

Astronomy

May. 08, 2013 Rise Set
Actual Time 5:05 AM AKDT 10:13 PM AKDT
Civil Twilight 3:57 AM AKDT 11:22 PM AKDT
Nautical Twilight 2:10 AM AKDT 1:05 AM AKDT
Astronomical Twilight Sun does not set Sun does not set
Moon 4:45 AM AKDT (5/8) 9:05 PM AKDT (5/8)
Length of Visible Light 19h 24m
Length of Day
17h 08m
Waning Crescent, 1% of the Moon is Illuminated
May 8
Waning Crescent
May 9
New
May 17
First Quarter
May 24
Full
May 31
Last Quarter

Hourly Weather History & Observations

Time (AKDT) Temp. Windchill Dew Point Humidity Pressure Visibility Wind Dir Wind Speed Gust Speed Precip Events Conditions
12:53 AM 32.0 °F 26.4 °F 24.1 °F 73% 30.27 in 10.0 mi North 5.8 mph - N/A   Clear
1:53 AM 30.0 °F 24.1 °F 21.9 °F 72% 30.27 in 10.0 mi NNW 5.8 mph - N/A   Clear
2:53 AM 28.9 °F 22.8 °F 21.9 °F 75% 30.27 in 10.0 mi NNW 5.8 mph - N/A   Clear
3:53 AM 28.9 °F 21.9 °F 21.9 °F 75% 30.27 in 10.0 mi North 6.9 mph - N/A   Clear
4:53 AM 28.0 °F 22.8 °F 21.0 °F 75% 30.27 in 10.0 mi NNW 4.6 mph - N/A   Clear
5:53 AM 27.0 °F 19.5 °F 21.0 °F 78% 30.28 in 10.0 mi NW 6.9 mph - N/A   Clear
6:01 AM 27.0 °F 20.5 °F 21.0 °F 78% 30.21 in 10.0 mi NW 5.8 mph - N/A   Mostly Cloudy
6:53 AM 30.9 °F 25.2 °F 21.0 °F 67% 30.28 in 10.0 mi North 5.8 mph - N/A   Mostly Cloudy
7:53 AM 35.1 °F 27.9 °F 21.0 °F 57% 30.27 in 10.0 mi North 9.2 mph - N/A   Mostly Cloudy
8:53 AM 37.9 °F 32.1 °F 19.9 °F 48% 30.27 in 10.0 mi North 8.1 mph - N/A   Mostly Cloudy
9:53 AM 41.0 °F 35.8 °F 19.0 °F 41% 30.27 in 10.0 mi NNW 8.1 mph - N/A   Scattered Clouds
10:53 AM 44.1 °F 39.5 °F 19.0 °F 37% 30.27 in 10.0 mi NNW 8.1 mph - N/A   Scattered Clouds
11:53 AM 45.0 °F 41.2 °F 19.9 °F 37% 30.27 in 10.0 mi West 6.9 mph - N/A   Mostly Cloudy
12:53 PM 46.0 °F 42.5 °F 19.0 °F 34% 30.28 in 10.0 mi Variable 6.9 mph - N/A   Mostly Cloudy
1:53 PM 46.9 °F - 19.0 °F 33% 30.28 in 10.0 mi North 9.2 mph - N/A   Mostly Cloudy
2:53 PM 48.9 °F - 19.9 °F 32% 30.28 in 10.0 mi North 9.2 mph - N/A   Scattered Clouds
3:53 PM 48.9 °F - 19.0 °F 31% 30.27 in 10.0 mi NNW 6.9 mph - N/A   Scattered Clouds
4:53 PM 50.0 °F - 19.9 °F 31% 30.27 in 10.0 mi NW 8.1 mph - N/A   Scattered Clouds
5:53 PM 50.0 °F - 18.0 °F 28% 30.27 in 10.0 mi North 4.6 mph - N/A   Scattered Clouds
6:53 PM 50.0 °F - 18.0 °F 28% 30.26 in 10.0 mi North 6.9 mph - N/A   Partly Cloudy
7:53 PM 48.9 °F - 19.0 °F 31% 30.26 in 10.0 mi NW 9.2 mph - N/A   Partly Cloudy
8:53 PM 46.0 °F 42.5 °F 17.1 °F 31% 30.27 in 10.0 mi NNW 6.9 mph - N/A   Partly Cloudy
9:26 PM 44.1 °F 40.1 °F 18.0 °F 35% 30.23 in 10.0 mi NNW 6.9 mph - N/A   Partly Cloudy
9:53 PM 41.0 °F 36.4 °F 17.1 °F 38% 30.29 in 10.0 mi North 6.9 mph - N/A   Clear
10:53 PM 37.0 °F 31.0 °F 19.0 °F 48% 30.30 in 10.0 mi North 8.1 mph - N/A   Clear
11:53 PM 34.0 °F 27.2 °F 19.0 °F 54% 30.32 in 10.0 mi North 8.1 mph - N/A   Clear